Location: Castillon
(43.0896°N, 0.2156°E)
Time: 04:08:45
(UTC+00:00)

Cosmos 1980 Rocket - Pass Details

Date: 20 October 2021
Orbit: 828 x 851 km, 71.0° (Epoch: 07 December)

Event Time Altitude Azimuth Distance (km) Brightness Sun altitude
Exits shadow 03:15:23 18° 142° (SE) 1,983 4.2 -33.8°
Drops below altitude 10° 03:16:43 10° 145° (SE) 2,467 4.8 -33.6°
Sets 03:19:10 0° 149° (SSE) 3,396 5.5 -33.2°
